Regional Weather Roundup
Issued by NWS

Home | Current Version | Previous Version | Graphics & Text | Print | Product List | Glossary On
Versions: 1 2 3 4 5 6 7 8 9 10 11 12 13 14 15 16 17 18 19 20 21 22 23 24 25 26 27 28 29 30 31 32 33 34 35 36 37 38 39 40 41 42 43 44 45 46 47 48 49 50
000
ASUS43 KDMX 270407
RWRIA

WEATHER ROUNDUP FOR IOWA
NATIONAL WEATHER SERVICE DES MOINES IA
1000 PM CST FRI DEC 26 2014

NOTE: "FAIR" INDICATES FEW OR NO CLOUDS BELOW 12,000 FEET WITH NO
SIGNIFICANT WEATHER AND/OR OBSTRUCTIONS TO VISIBILITY.

* - THESE STATIONS ARE NOT NWS STATIONS...THUS NOT UNDER NWS
QUALITY CONTROL.  THEY ALSO DO NOT REPORT WEATHER SUCH
AS PRECIPITATION OR FOG.

IAZ001>003-012>014-020>022-031>034-043>046-270500-
   NORTHWEST IOWA

CITY           SKY/WX    TMP DP  RH WIND       PRES   REMARKS
CARROLL *      CLOUDY    30  32 100 NE12      29.99R FOG     WCI  21
CHEROKEE *     LGT SNOW  28  27  93 N12       30.02R WCI  18
DENISON *      CLOUDY    30  30 100 N9        29.99R FOG     WCI  22
LE MARS *      LGT SNOW  27  25  93 N9G15     30.06R WCI  17
ORANGE CITY *  LGT SNOW  27  25  93 N8        30.04R VSB 1   WCI  18
SHELDON *      MIX PCPN  25  25 100 N20       30.02S WCI  11
SIOUX CITY     LGT SNOW  28  24  85 N13       30.06F FOG     WCI  17
SPENCER        LGT SNOW  28  24  85 N14       30.01F FOG     WCI  17
STORM LAKE *   LGT SNOW  28  28 100 N15       30.00R WCI  17
$$

IAZ055>058-069>071-079>083-090>094-270500-
   SOUTHWEST IOWA

CITY           SKY/WX    TMP DP  RH WIND       PRES   REMARKS
ATLANTIC *     CLOUDY    32  32 100 N7        29.99R FOG     WCI  26
AUDUBON *      CLOUDY    30  27  86 N8        30.00R FOG     WCI  23
CLARINDA *     CLOUDY    34  34 100 N6        30.00F FOG     WCI  29
COUNCIL BLFS * LGT SNOW  32  32 100 N6        29.99S WCI  26
CRESTON *      FOG       32  32 100 N3        29.98R VSB 1/4
HARLAN  *      MIX PCPN  32  32 100 N9        30.03R WCI  24
LAMONI         CLOUDY    35  33  92 NE5       29.96S FOG     WCI  31
RED OAK *      CLOUDY    34  34 100 N7        30.00F WCI  28
SHENANDOAH *   CLOUDY    34  34 100 N5        30.00F FOG     WCI  30
$$

IAZ047>049-059>061-072>074-084-270500-
   CENTRAL IOWA

CITY           SKY/WX    TMP DP  RH WIND       PRES   REMARKS
AMES           CLOUDY    33  32  96 N7        29.97S FOG     WCI  27
ANKENY *       CLOUDY    34  34 100 N3        29.97F FOG
CHARITON *     CLOUDY    34  34 100 NW3       29.97S FOG
DES MOINES     DRIZZLE   35  32  88 CALM      29.98S FOG
GRINNELL*      CLOUDY    34  32  93 NE6       29.95F WCI  29
KNOXVILLE *    CLOUDY    36  32  87 NW3       29.96S
MARSHALLTOWN   CLOUDY    34  32  92 NE5       29.95F WCI  30
PELLA *        CLOUDY    36  34  93 CALM      29.96F
PERRY *        CLOUDY    34  34 100 N5        29.99R FOG     WCI  30
$$

IAZ004>006-015-016-023>025-035-036-270500-
   NORTH CENTRAL IOWA

CITY           SKY/WX    TMP DP  RH WIND       PRES   REMARKS
ALGONA *       CLOUDY    30  30 100 N16       29.99F FOG     WCI  19
CLARION *      CLOUDY    32  32 100 N12       29.97F WCI  23
ESTHERVILLE    CLOUDY    27  25  92 N15       30.00F FOG     WCI  15
FORT DODGE *   CLOUDY    30  28  93 N10G18    29.97F WCI  21
MASON CITY     LGT SNOW  31  29  92 N14       29.98F FOG     WCI  21
FOREST CITY *  CLOUDY    32  30  93 N14       29.98F WCI  22
IOWA FALLS *   CLOUDY    32  32 100 N5        29.97S FOG     WCI  27
$$

IAZ007>011-017>019-026>030-037>042-050>054-066-270500-
   NORTHEAST IOWA

CITY           SKY/WX    TMP DP  RH WIND       PRES   REMARKS
CEDAR RAPIDS   CLOUDY    39  35  86 SE3       29.95S
CHARLES CITY * CLOUDY    34  34 100 N7        29.97F FOG     WCI  28
CLINTON *      CLOUDY    43  36  75 NE6       30.00F
DECORAH *      CLOUDY    34  32  93 NE6       29.94F WCI  29
DUBUQUE        CLOUDY    37  35  92 CALM      29.97R
MONTICELLO *   CLOUDY    37  37 100 E3        29.96F FOG
OELWEIN *      CLOUDY    34  32  93 NE7       29.96F WCI  28
WATERLOO       CLOUDY    34  32  92 CALM      29.96S
$$

IAZ064-065-067-068-078-270500-
   EAST CENTRAL IOWA

CITY           SKY/WX    TMP DP  RH WIND       PRES   REMARKS
DAVENPORT      CLOUDY    43  37  79 E5        29.97F
IOWA CITY      LGT RAIN  42  36  79 CALM      29.98S
MT. PLEASANT * CLOUDY    43  41  93 N6        29.96R
MUSCATINE *    CLOUDY    45  39  81 NW5       29.97F
QUAD CITIES    CLOUDY    43  39  86 E3        29.96S
$$

IAZ062-063-075>077-085>089-095>099-270500-
   SOUTHEAST IOWA

CITY           SKY/WX    TMP DP  RH WIND       PRES   REMARKS
BURLINGTON     CLOUDY    49  43  80 S6        29.95R
FAIRFIELD *    CLOUDY    41  37  87 NE5       29.96F
FORT MADISON *   N/A     52  45  76 S7        29.97R
KEOKUK *       CLOUDY    52  45  76 S10       29.95R
OSKALOOSA *    CLOUDY    36  34  93 N3        29.97F
CENTERVILLE *  CLOUDY    37  37 100 NE3       29.96F
OTTUMWA        CLOUDY    37  35  92 N5        29.96S WCI  33
WASHINGTON *   CLOUDY    41  41 100 NE7       29.96S
$$

ABBREVIATIONS USED IN REMARKS
   TC - TEMPERATURES IN CELSIUS
  WCI - WIND CHILL INDEX
   HX - HEAT INDEX
  VSB - VISIBILITY
$$



USA.gov is the U.S. government's official web portal to all federal, state and local government web resources and services.